Regional Weather Roundup
Issued by NWS Albany, NY

Home | Current Version | Previous Version | Text Only | Print | Product List | Glossary On
Versions: 1 2 3 4 5 6 7 8 9 10 11 12 13 14 15 16 17 18 19 20 21 22 23 24 25 26 27
000
ASUS41 KALY 280710
RWRALY

NEW YORK STATE HOURLY WEATHER ROUNDUP
NATIONAL WEATHER SERVICE ALBANY NY
300 AM EDT FRI APR 28 2017

NOTE: "FAIR" INDICATES FEW OR NO CLOUDS BELOW 12,000 FEET WITH NO
SIGNIFICANT WEATHER AND/OR NO OBSTRUCTIONS TO VISIBILITY.

NYZ032-033-038>043-046>054-057>066-NYZ062>081-082-084-280800-
EAST


CITY           SKY/WX    TMP DP  RH WIND       PRES   REMARKS
ALBANY         CLOUDY    62  57  83 S13       29.85R
GLENS FALLS    CLOUDY    63  57  81 S10       29.84R
POUGHKEEPSIE   CLOUDY    60  58  92 SE3       29.85F
NEWBURGH       CLOUDY    59  59 100 SE5       29.87F FOG
MONTGOMERY     CLOUDY    60  58  92 CALM      29.85S
WHITE PLAINS   DRZL/FOG  57  56  96 E6        29.87F VSB 1/4
ISLIP          FOG       57  57 100 S6        29.88F VSB 3/4
NEW YORK CITY  FOG       59  57  93 E5        29.86F VSB 1/4
CENTRAL PARK   CLOUDY    58  57  97 CALM      29.89F FOG
$$

NYZ005>009-017-018-044>046-055-056-280800-
CENTRAL


CITY           SKY/WX    TMP DP  RH WIND       PRES   REMARKS
FULTON         CLOUDY    61  57  87 SW6       29.83R
SYRACUSE       LGT RAIN  60  58  92 W7        29.82R
ROME           LGT RAIN  62  62 100 CALM      29.83R
ELMIRA         CLOUDY    63  59  87 NW3       29.83R
BINGHAMTON     CLOUDY    59  57  93 SW5       29.84R
MONTICELLO     CLOUDY    57  57 100 CALM      29.89S
$$

NYZ026>034-041>043-087-280800-
NORTH


CITY           SKY/WX    TMP DP  RH WIND       PRES   REMARKS
WATERTOWN      CLOUDY    60  59  96 S8        29.80R
FORT DRUM      NOT AVBL
OGDENSBURG     MOCLDY    62  60  94 S9        29.76R
MASSENA        LGT RAIN  63  60  90 S8        29.76R
SARANAC LAKE   CLOUDY    60  56  86 SW7       29.82R
PLATTSBURGH    CLOUDY    57  52  83 SE6       29.77R
$$

NYZ001>004-010>016-019>021-085-280800-
WEST


CITY           SKY/WX    TMP DP  RH WIND       PRES   REMARKS
NIAGARA FALLS  CLEAR     50  43  77 SW14      29.84R
BUFFALO        PTCLDY    50  42  74 SW15      29.87R
DUNKIRK        CLEAR     50  42  74 SW15G24   29.90R
JAMESTOWN      CLEAR     46  39  76 SW12      29.90R
WELLSVILLE     CLOUDY    55  50  83 W7        29.90R
ROCHESTER      PTCLDY    55  45  68 W15       29.86R
PENN YAN       CLOUDY    61  49  64 W9        29.86R
$$

             KEY
       WCI = WIND CHILL INDEX
       VSB = VISIBILITY
       HX  = HEAT INDEX
$$




USA.gov is the U.S. government's official web portal to all federal, state and local government web resources and services.